Regional Weather Roundup
Issued by NWS

Home | Current Version | Previous Version | Graphics & Text | Print | Product List | Glossary On
Versions: 1 2 3 4 5 6 7 8 9 10 11 12 13 14 15 16 17 18 19 20 21 22 23 24 25 26 27 28 29 30 31 32 33 34 35 36 37 38 39 40 41 42 43 44 45 46 47 48 49 50
000
ASUS43 KDTX 221610
RWRMI
MICHIGAN HOURLY REGIONAL WEATHER ROUNDUP
NATIONAL WEATHER SERVICE DETROIT/PONTIAC MI
1100 AM EST MON DEC 22 2014

NOTE: "FAIR" INDICATES FEW OR NO CLOUDS BELOW 12,000 FEET WITH NO
SIGNIFICANT WEATHER AND/OR OBSTRUCTION TO VISIBILITY.

MIZ047>049-052>055-059>063-066>070-074>076-081>083-221700-
SOUTHEAST LOWER MICHIGAN

CITY           SKY/WX    TMP DP  RH WIND       PRES   REMARKS
ADRIAN         SUNNY     31  27  85 E7        30.06F FOG     WCI  24
ALMA           SUNNY     31  27  84 E7        30.06S FOG     WCI  25
ANN ARBOR      SUNNY     34  28  79 E9        30.06F WCI  27
BAD AXE        MOSUNNY   32  26  78 SE7       30.10F WCI  26
CARO           MOSUNNY   34  26  72 SE10      30.08F WCI  26
DETROIT CITY   SUNNY     37  29  72 SE10      30.09S WCI  30
DETROIT        PTSUNNY   35  29  78 E9        30.09F WCI  28
FLINT          SUNNY     37  26  64 SE9       30.06F WCI  30
GROSSE ILE     SUNNY     36  30  80 E6        30.06F WCI  31
HILLSDALE      CLOUDY    31  28  85 SE9       30.00F WCI  23
HOWELL         SUNNY     33  28  80 SE12      30.05S WCI  24

CITY           SKY/WX    TMP DP  RH WIND       PRES   REMARKS
JACKSON        SUNNY     32  27  81 SE9       30.03F WCI  24
LAMBERTVILLE   SUNNY     34  28  80 E5        30.07S WCI  30
LANSING        SUNNY     33  26  75 SE10      30.04F HAZE    WCI  25
LAPEER         FAIR      33  27  77 SE8       30.08F WCI  26
MASON          SUNNY     32  26  79 SE8       30.03F WCI  25
MONROE         SUNNY     36  28  75 SE6       30.07R WCI  31
PONTIAC        MOSUNNY   34  26  72 E7        30.05F WCI  28
PORT HOPE        N/A     33  24  69 SE7       30.10F WCI  27
PORT HURON     MOSUNNY   34  28  80 SE10      30.11S WCI  26
TRI CITIES     SUNNY     34  25  69 SE8       30.08F WCI  27
TROY           SUNNY     37  28  72 E6        30.09F WCI  32
SAGINAW HB     SUNNY     34  28  80 SE8       30.07F WCI  27
$$
MIZ043>046-050>051-056>058-064>065-071>073-077>080-221700-
SOUTHWEST LOWER MICHIGAN

CITY           SKY/WX    TMP DP  RH WIND       PRES   REMARKS
BATTLE CREEK   CLOUDY    32  24  72 E9        29.99F WCI  24
BENTON HARBOR  CLOUDY    31  26  82 SE10G20   29.94F HAZE    WCI  22
BIG RAPIDS     SUNNY     31  28  86 SE13      30.02R FOG     WCI  22
COLDWATER      CLOUDY    31  26  81 MISG      29.98F HAZE
FREMONT        FAIR      32  25  74 E10       29.99F WCI  24
HOLLAND        CLOUDY    33  26  75 E12       29.97F WCI  24
GRAND RAPIDS   PTSUNNY   32  25  75 E12       30.00F HAZE    WCI  23
IONIA          FAIR      34  28  79 SE13      30.02F WCI  25
KALAMAZOO      CLOUDY    32  25  75 E9        29.98F HAZE    WCI  24
LUDINGTON      MOSUNNY   36  27  72 SE10      29.98F WCI  28
MARSHALL       CLOUDY    31  26  81 SE8       29.99F WCI  23
MOUNT PLEASANT SUNNY     31  27  82 E8        30.04F HAZE    WCI  24
MUSKEGON       CLOUDY    34  25  69 SE13      29.98F WCI  25
SOUTH HAVEN    CLOUDY    33  26  77 SE8       29.94F HAZE    WCI  26
$$
MIZ016>042-221700-
NORTHERN LOWER MICHIGAN

CITY           SKY/WX    TMP DP  RH WIND       PRES   REMARKS
ALPENA         PTSUNNY   32  26  78 S9        30.11S WCI  24
BEAVER ISLAND  CLOUDY    33  27  80 SE10G16   30.02S WCI  25
BELLAIRE       PTSUNNY   32  25  74 SE6       30.05S WCI  26
CADILLAC       MOSUNNY   28  24  82 E13       29.99F FOG     WCI  18
CHARLEVOIX     CLOUDY    32  25  77 SE9       30.06S WCI  24
FRANKFORT      MOSUNNY   34  26  72 SE8       29.98F WCI  27
GAYLORD        CLOUDY    27  24  89 SE14      30.03S FOG     WCI  16
GRAYLING       CLOUDY    28  24  85 SE8       30.06S FOG     WCI  20
HARBOR SPRINGS CLOUDY    32  25  73 SE5       30.05S WCI  28
HOUGHTON LAKE  MOSUNNY   29  23  78 SE13      30.06S WCI  19
MANISTEE       MOSUNNY   34  23  64 SE9G17    29.99F WCI  26
OSCODA         CLOUDY    33  27  79 SE7       30.11S WCI  27
PELLSTON       CLOUDY    31  25  78 SE13      30.06S WCI  21
ROGERS CITY    CLOUDY    32  28  84 S12       30.10F WCI  23
TRAVERSE CITY  CLOUDY    33  25  72 SE9       30.02S WCI  25
$$
MIZ007>008-015-221700-
EASTERN UPPER MICHIGAN

CITY           SKY/WX    TMP DP  RH WIND       PRES   REMARKS
KINROSS        CLOUDY    32  28  86 SE15      30.06S WCI  22
MACKINAC ISLAN CLOUDY    32  26  79 SE10G17   30.06R WCI  23
NEWBERRY       CLOUDY    30  27  90 S12G17    30.01S FOG     WCI  20
S. S. MARIE    CLOUDY    32  27  81 SE10      30.10R WCI  24
MUNISING         N/A     36  32  85 S12G17    29.95F WCI  28
$$
MIZ004>006-011>014-085-221700-
CENTRAL UPPER MICHIGAN

CITY           SKY/WX    TMP DP  RH WIND       PRES   REMARKS
MANISTIQUE     CLOUDY    34  31  90 SE8G17    29.99S FOG     WCI  27
ESCANABA       CLOUDY    36  30  80 S12G18    29.95S WCI  27
MENOMINEE      CLOUDY    36  34  93 S12       29.92S WCI  27
SAWYER-GWINN   FOG       32  32 100 S12       29.90S VSB 1/2 WCI  23
$$
MIZ001>003-009>011-084-221700-
WESTERN UPPER MICHIGAN

CITY           SKY/WX    TMP DP  RH WIND       PRES   REMARKS
IRON MOUNTAIN  CLOUDY    34  31  88 SE10      29.87S FOG     WCI  26
HOUGHTON       CLOUDY    33  31  92 SE10      29.83F FOG     WCI  25
COPPER HARBOR    N/A     36  33  89 SW9G17    29.86S WCI  29
IRONWOOD       CLOUDY    36  34  93 SE8G18    29.74F WCI  29
$$

ABBREVIATIONS USED IN REMARKS
   TC - TEMPERATURE IN CELSIUS
  WCI - WIND CHILL INDEX
   HX - HEAT INDEX
  VSB - VISIBILITY



USA.gov is the U.S. government's official web portal to all federal, state and local government web resources and services.